Time,TemperatureF,DewpointF,PressureIn,WindDirection,WindDirectionDegrees,WindSpeedMPH,WindSpeedGustMPH,Humidity,HourlyPrecipIn,Conditions,Clouds,dailyrainin,SoftwareType,DateUTC
2013-07-04 00:07:00,69.2,68.0,30.09,South,188,1.0,2.0,95,0.00,,,0.00,weatherlink.com 1.10,2013-07-04 04:07:00,
2013-07-04 00:22:00,69.1,68.0,30.08,South,187,1.0,3.0,95,0.00,,,0.00,weatherlink.com 1.10,2013-07-04 04:22:00,
2013-07-04 00:37:00,69.3,68.0,30.08,SSW,192,1.0,6.0,95,0.00,,,0.00,weatherlink.com 1.10,2013-07-04 04:37:00,
2013-07-04 00:52:00,69.5,68.0,30.08,SSW,211,3.0,6.0,96,0.00,,,0.00,weatherlink.com 1.10,2013-07-04 04:52:00,
2013-07-04 01:07:00,69.7,68.0,30.08,SSW,196,4.0,5.0,95,0.00,,,0.00,weatherlink.com 1.10,2013-07-04 05:07:00,
2013-07-04 01:22:00,69.7,68.0,30.09,SSW,193,2.0,7.0,95,0.00,,,0.00,weatherlink.com 1.10,2013-07-04 05:22:00,
2013-07-04 01:37:00,69.9,69.0,30.09,SSE,150,5.0,8.0,95,0.00,,,0.00,weatherlink.com 1.10,2013-07-04 05:37:00,
2013-07-04 01:52:00,70.1,68.0,30.09,South,182,2.0,9.0,94,0.00,,,0.00,weatherlink.com 1.10,2013-07-04 05:52:00,
2013-07-04 02:07:00,70.1,68.0,30.08,South,176,4.0,6.0,94,0.00,,,0.00,weatherlink.com 1.10,2013-07-04 06:07:00,
2013-07-04 02:22:00,70.1,68.0,30.08,South,184,2.0,7.0,94,0.00,,,0.00,weatherlink.com 1.10,2013-07-04 06:22:00,
2013-07-04 02:37:00,70.1,68.0,30.07,South,170,4.0,8.0,92,0.00,,,0.00,weatherlink.com 1.10,2013-07-04 06:37:00,
2013-07-04 02:52:00,70.1,68.0,30.07,SSW,198,3.0,7.0,92,0.00,,,0.00,weatherlink.com 1.10,2013-07-04 06:52:00,
2013-07-04 03:07:00,69.8,67.0,30.07,South,189,2.0,6.0,92,0.00,,,0.00,weatherlink.com 1.10,2013-07-04 07:07:00,
2013-07-04 03:22:00,69.6,68.0,30.07,South,178,2.0,6.0,93,0.00,,,0.00,weatherlink.com 1.10,2013-07-04 07:22:00,
2013-07-04 03:37:00,69.6,68.0,30.07,SSW,205,3.0,7.0,93,0.00,,,0.00,weatherlink.com 1.10,2013-07-04 07:37:00,
2013-07-04 03:52:00,69.6,68.0,30.08,SW,217,2.0,7.0,93,0.00,,,0.00,weatherlink.com 1.10,2013-07-04 07:52:00,
2013-07-04 04:07:00,69.6,68.0,30.08,SSW,194,0.0,8.0,93,0.00,,,0.00,weatherlink.com 1.10,2013-07-04 08:07:00,
2013-07-04 04:22:00,69.6,67.0,30.09,South,190,3.0,5.0,92,0.00,,,0.00,weatherlink.com 1.10,2013-07-04 08:22:00,
2013-07-04 04:37:00,69.7,67.0,30.08,South,188,3.0,8.0,92,0.00,,,0.00,weatherlink.com 1.10,2013-07-04 08:37:00,
2013-07-04 04:52:00,69.8,67.0,30.09,South,191,3.0,8.0,92,0.00,,,0.00,weatherlink.com 1.10,2013-07-04 08:52:00,
2013-07-04 05:07:00,69.8,68.0,30.09,South,184,1.0,8.0,93,0.00,,,0.00,weatherlink.com 1.10,2013-07-04 09:07:00,
2013-07-04 05:22:00,69.7,68.0,30.10,SSW,200,3.0,8.0,93,0.00,,,0.00,weatherlink.com 1.10,2013-07-04 09:22:00,
2013-07-04 05:37:00,69.6,68.0,30.11,SSW,192,2.0,8.0,94,0.01,,,0.01,weatherlink.com 1.10,2013-07-04 09:37:00,
2013-07-04 05:52:00,69.2,68.0,30.11,SSW,200,2.0,5.0,95,0.07,,,0.07,weatherlink.com 1.10,2013-07-04 09:52:00,
2013-07-04 06:07:00,68.9,68.0,30.12,South,169,1.0,4.0,96,0.16,,,0.16,weatherlink.com 1.10,2013-07-04 10:07:00,
2013-07-04 06:22:00,68.8,68.0,30.12,South,174,3.0,4.0,96,0.18,,,0.18,weatherlink.com 1.10,2013-07-04 10:22:00,
2013-07-04 06:37:00,68.7,68.0,30.12,South,171,1.0,5.0,96,0.24,,,0.25,weatherlink.com 1.10,2013-07-04 10:37:00,
2013-07-04 06:52:00,68.7,68.0,30.13,SSW,196,7.0,7.0,97,0.29,,,0.37,weatherlink.com 1.10,2013-07-04 10:52:00,
2013-07-04 07:07:00,68.7,68.0,30.12,South,185,0.0,7.0,97,0.34,,,0.50,weatherlink.com 1.10,2013-07-04 11:07:00,
2013-07-04 07:22:00,68.8,68.0,30.13,South,185,0.0,2.0,97,0.31,,,0.50,weatherlink.com 1.10,2013-07-04 11:22:00,
2013-07-04 07:37:00,68.8,68.0,30.13,South,185,0.0,1.0,97,0.25,,,0.50,weatherlink.com 1.10,2013-07-04 11:37:00,
2013-07-04 07:52:00,69.1,68.0,30.13,SSE,162,2.0,3.0,97,0.12,,,0.50,weatherlink.com 1.10,2013-07-04 11:52:00,
2013-07-04 08:07:00,69.4,69.0,30.13,South,172,1.0,4.0,97,0.00,,,0.50,weatherlink.com 1.10,2013-07-04 12:07:00,
2013-07-04 08:22:00,69.9,69.0,30.13,SSE,158,3.0,4.0,97,0.00,,,0.50,weatherlink.com 1.10,2013-07-04 12:22:00,
2013-07-04 08:37:00,70.3,69.0,30.13,SSE,159,2.0,4.0,96,0.00,,,0.50,weatherlink.com 1.10,2013-07-04 12:37:00,
2013-07-04 08:52:00,71.0,70.0,30.13,SSE,161,1.0,4.0,96,0.00,,,0.50,weatherlink.com 1.10,2013-07-04 12:52:00,
2013-07-04 09:08:00,71.4,70.0,30.13,SSE,157,2.0,6.0,94,0.00,,,0.50,weatherlink.com 1.10,2013-07-04 13:08:00,
2013-07-04 09:23:00,71.9,70.0,30.14,SSW,211,2.0,6.0,94,0.00,,,0.50,weatherlink.com 1.10,2013-07-04 13:23:00,
2013-07-04 09:38:00,72.6,71.0,30.14,South,184,3.0,7.0,93,0.00,,,0.50,weatherlink.com 1.10,2013-07-04 13:38:00,
2013-07-04 09:53:00,73.7,71.0,30.14,South,181,3.0,9.0,90,0.00,,,0.50,weatherlink.com 1.10,2013-07-04 13:53:00,
2013-07-04 10:08:00,74.2,71.0,30.14,SSW,205,3.0,8.0,89,0.00,,,0.50,weatherlink.com 1.10,2013-07-04 14:08:00,
2013-07-04 10:23:00,74.6,71.0,30.14,SSW,205,1.0,6.0,89,0.00,,,0.50,weatherlink.com 1.10,2013-07-04 14:23:00,
2013-07-04 10:38:00,75.1,71.0,30.13,South,186,7.0,10.0,87,0.00,,,0.50,weatherlink.com 1.10,2013-07-04 14:38:00,
2013-07-04 10:53:00,75.5,71.0,30.13,SSE,168,7.0,9.0,86,0.00,,,0.50,weatherlink.com 1.10,2013-07-04 14:53:00,
2013-07-04 11:08:00,75.5,71.0,30.13,SSW,196,3.0,9.0,85,0.00,,,0.50,weatherlink.com 1.10,2013-07-04 15:08:00,
2013-07-04 11:23:00,75.6,71.0,30.13,SSW,204,6.0,12.0,84,0.00,,,0.50,weatherlink.com 1.10,2013-07-04 15:23:00,
2013-07-04 11:38:00,76.6,72.0,30.12,South,187,4.0,10.0,84,0.00,,,0.50,weatherlink.com 1.10,2013-07-04 15:38:00,
2013-07-04 11:53:00,77.2,71.0,30.12,South,178,6.0,9.0,82,0.00,,,0.50,weatherlink.com 1.10,2013-07-04 15:53:00,
2013-07-04 12:08:00,78.4,71.0,30.12,SSW,209,5.0,16.0,79,0.00,,,0.50,weatherlink.com 1.10,2013-07-04 16:08:00,
2013-07-04 12:23:00,79.3,72.0,30.11,South,172,2.0,11.0,77,0.00,,,0.50,weatherlink.com 1.10,2013-07-04 16:23:00,
2013-07-04 12:38:00,81.2,72.0,30.12,WSW,257,5.0,9.0,74,0.00,,,0.50,weatherlink.com 1.10,2013-07-04 16:38:00,
2013-07-04 12:53:00,80.9,71.0,30.12,SSW,197,0.0,10.0,71,0.00,,,0.50,weatherlink.com 1.10,2013-07-04 16:53:00,
2013-07-04 13:08:00,81.5,71.0,30.12,SSE,168,9.0,9.0,70,0.00,,,0.50,weatherlink.com 1.10,2013-07-04 17:08:00,
2013-07-04 13:23:00,81.2,71.0,30.11,SSW,211,5.0,8.0,71,0.00,,,0.50,weatherlink.com 1.10,2013-07-04 17:23:00,
2013-07-04 13:38:00,80.2,70.0,30.11,South,182,4.0,11.0,72,0.00,,,0.50,weatherlink.com 1.10,2013-07-04 17:38:00,
2013-07-04 13:53:00,79.3,71.0,30.11,SSW,204,1.0,9.0,75,0.00,,,0.50,weatherlink.com 1.10,2013-07-04 17:53:00,
2013-07-04 14:08:00,79.1,70.0,30.11,SSW,192,5.0,9.0,74,0.00,,,0.50,weatherlink.com 1.10,2013-07-04 18:08:00,
2013-07-04 14:23:00,76.9,71.0,30.13,WSW,243,4.0,5.0,82,0.11,,,0.61,weatherlink.com 1.10,2013-07-04 18:23:00,
2013-07-04 14:38:00,73.0,70.0,30.11,SSW,195,1.0,5.0,91,0.23,,,0.73,weatherlink.com 1.10,2013-07-04 18:38:00,
2013-07-04 14:53:00,75.1,73.0,30.11,SSW,205,1.0,5.0,92,0.23,,,0.73,weatherlink.com 1.10,2013-07-04 18:53:00,
2013-07-04 15:08:00,77.1,73.0,30.10,South,191,0.0,4.0,88,0.23,,,0.73,weatherlink.com 1.10,2013-07-04 19:08:00,
2013-07-04 15:23:00,78.0,73.0,30.10,West,278,4.0,4.0,84,0.11,,,0.73,weatherlink.com 1.10,2013-07-04 19:23:00,
2013-07-04 15:38:00,77.5,72.0,30.09,WNW,284,0.0,3.0,84,0.00,,,0.73,weatherlink.com 1.10,2013-07-04 19:38:00,
2013-07-04 15:53:00,76.6,73.0,30.09,NW,311,2.0,8.0,88,0.00,,,0.73,weatherlink.com 1.10,2013-07-04 19:53:00,
2013-07-04 16:08:00,75.2,72.0,30.10,WNW,293,1.0,7.0,89,0.00,,,0.73,weatherlink.com 1.10,2013-07-04 20:08:00,
2013-07-04 16:23:00,74.7,71.0,30.09,WNW,286,0.0,3.0,89,0.00,,,0.73,weatherlink.com 1.10,2013-07-04 20:23:00,
2013-07-04 16:38:00,76.3,73.0,30.09,West,271,0.0,4.0,88,0.00,,,0.73,weatherlink.com 1.10,2013-07-04 20:38:00,
2013-07-04 16:53:00,76.4,73.0,30.10,SW,233,3.0,5.0,88,0.01,,,0.74,weatherlink.com 1.10,2013-07-04 20:53:00,
2013-07-04 17:08:00,73.0,70.0,30.10,SSW,194,1.0,5.0,90,0.07,,,0.80,weatherlink.com 1.10,2013-07-04 21:08:00,
2013-07-04 17:23:00,73.0,71.0,30.09,SSW,196,2.0,2.0,92,0.07,,,0.80,weatherlink.com 1.10,2013-07-04 21:23:00,
2013-07-04 17:38:00,74.3,72.0,30.09,West,260,3.0,4.0,91,0.07,,,0.80,weatherlink.com 1.10,2013-07-04 21:38:00,
2013-07-04 17:53:00,75.8,72.0,30.09,WSW,251,2.0,4.0,89,0.05,,,0.80,weatherlink.com 1.10,2013-07-04 21:53:00,
2013-07-04 18:08:00,75.9,73.0,30.09,West,277,3.0,4.0,89,0.00,,,0.80,weatherlink.com 1.10,2013-07-04 22:08:00,
2013-07-04 18:23:00,76.3,73.0,30.09,West,274,0.0,2.0,88,0.00,,,0.80,weatherlink.com 1.10,2013-07-04 22:23:00,
2013-07-04 18:38:00,78.2,73.0,30.09,West,260,2.0,6.0,84,0.00,,,0.80,weatherlink.com 1.10,2013-07-04 22:38:00,
2013-07-04 18:53:00,77.7,72.0,30.09,WSW,244,2.0,4.0,83,0.00,,,0.80,weatherlink.com 1.10,2013-07-04 22:53:00,
2013-07-04 19:08:00,77.0,71.0,30.09,SW,221,2.0,3.0,82,0.00,,,0.80,weatherlink.com 1.10,2013-07-04 23:08:00,
2013-07-04 19:23:00,76.7,71.0,30.09,SW,221,0.0,2.0,83,0.00,,,0.80,weatherlink.com 1.10,2013-07-04 23:23:00,
2013-07-04 19:38:00,76.2,71.0,30.09,SW,221,1.0,3.0,84,0.00,,,0.80,weatherlink.com 1.10,2013-07-04 23:38:00,
2013-07-04 19:53:00,75.7,71.0,30.09,SW,221,0.0,0.0,85,0.00,,,0.80,weatherlink.com 1.10,2013-07-04 23:53:00,
2013-07-04 20:08:00,75.0,71.0,30.09,SW,221,0.0,1.0,86,0.00,,,0.80,weatherlink.com 1.10,2013-07-05 00:08:00,
2013-07-04 20:23:00,74.5,71.0,30.08,SW,221,0.0,0.0,87,0.00,,,0.80,weatherlink.com 1.10,2013-07-05 00:23:00,
2013-07-04 20:38:00,73.8,70.0,30.09,SW,221,0.0,0.0,89,0.00,,,0.80,weatherlink.com 1.10,2013-07-05 00:38:00,
2013-07-04 20:53:00,73.7,70.0,30.08,SSW,204,1.0,3.0,87,0.00,,,0.80,weatherlink.com 1.10,2013-07-05 00:53:00,
2013-07-04 21:08:00,73.6,69.0,30.08,SSW,211,2.0,4.0,85,0.00,,,0.80,weatherlink.com 1.10,2013-07-05 01:08:00,
2013-07-04 21:23:00,73.5,70.0,30.08,SSW,208,1.0,3.0,87,0.00,,,0.80,weatherlink.com 1.10,2013-07-05 01:23:00,
2013-07-04 21:38:00,73.0,69.0,30.09,SSW,207,0.0,2.0,87,0.00,,,0.80,weatherlink.com 1.10,2013-07-05 01:38:00,
2013-07-04 21:53:00,72.9,69.0,30.09,SSW,207,0.0,2.0,87,0.00,,,0.80,weatherlink.com 1.10,2013-07-05 01:53:00,
2013-07-04 22:08:00,72.0,69.0,30.09,SSW,207,0.0,1.0,91,0.00,,,0.80,weatherlink.com 1.10,2013-07-05 02:08:00,
2013-07-04 22:23:00,71.4,69.0,30.09,SSW,207,0.0,2.0,92,0.00,,,0.80,weatherlink.com 1.10,2013-07-05 02:23:00,
2013-07-04 22:38:00,71.0,69.0,30.09,SSW,207,0.0,1.0,93,0.00,,,0.80,weatherlink.com 1.10,2013-07-05 02:38:00,
2013-07-04 22:53:00,70.8,69.0,30.09,SSW,207,0.0,1.0,95,0.00,,,0.80,weatherlink.com 1.10,2013-07-05 02:53:00,
2013-07-04 23:08:00,70.6,69.0,30.09,SSW,207,1.0,1.0,94,0.00,,,0.80,weatherlink.com 1.10,2013-07-05 03:08:00,
2013-07-04 23:23:00,70.4,69.0,30.09,SSW,207,0.0,0.0,94,0.00,,,0.80,weatherlink.com 1.10,2013-07-05 03:23:00,
2013-07-04 23:38:00,70.2,69.0,30.09,SSW,207,0.0,1.0,95,0.00,,,0.80,weatherlink.com 1.10,2013-07-05 03:38:00,
2013-07-04 23:53:00,70.0,68.0,30.09,SSW,207,0.0,2.0,94,0.00,,,0.80,weatherlink.com 1.10,2013-07-05 03:53:00,